User: anonymous   Login
Location: Unspecified
(0.0000°N, 0.0000°E)
Time: 01:58:00
(UTC+00:00)
Language:

KKS-1 - Orbit

View from above orbital plane
View from above orbital plane
View from above satellite
View from above satellite

Ground track
Ground track

The orbit data is extracted from the following two-line orbital elements,

1 33499U 09002H   17147.93198439 +.00000119 +00000-0 +25722-4 0  9998
2 33499 098.3300 312.7239 0010513 080.7303 279.5093 14.75183417447956
Epoch (UTC): 27 May 2017 22:22:03
Eccentricity: 0.0010513
inclination: 98.3300°
perigee height: 637 km
apogee height: 652 km
right ascension of ascending node: 312.7239°
argument of perigee: 80.7303°
revolutions per day: 14.75183417
mean anomaly at epoch: 279.5093°
orbit number at epoch: 44795

The dashed part of the orbit path shows where the satellite is in the earth's shadow,  

DLR